Location: ???? ?????????
(31.1304°N, 31.7111°E)
Time: 11:48:54
(UTC+00:00)

deb Explorer IX - Visible Passes

Search period start: 07 March 2021 00:00
Search period end: 17 March 2021 00:00
Orbit: 538 x 1101 km, 38.8° (Epoch: 06 March)

Date Brightness Start Highest point End Pass type
(mag) Time Alt. Az. Time Alt. Az. Time Alt. Az.
07 Mar ? 01:45:03 20° NE 01:45:03 20° NE 01:46:47 10° ENE visible
07 Mar ? 03:26:18 12° WNW 03:30:04 81° NNE 03:34:37 10° ESE visible
08 Mar ? 01:22:40 12° ENE 01:22:40 12° ENE 01:23:03 10° ENE visible
08 Mar ? 03:03:57 23° WNW 03:06:24 81° NNE 03:10:49 10° ESE visible
09 Mar ? 02:41:39 48° NW 02:42:44 81° NNE 02:47:01 10° ESE visible
10 Mar ? 02:19:26 71° E 02:19:26 71° E 02:23:15 10° ESE visible
11 Mar ? 01:57:18 30° ESE 01:57:18 30° ESE 01:59:30 10° ESE visible
11 Mar ? 03:38:54 10° W 03:41:46 18° SW 03:44:46 10° S visible
12 Mar ? 01:35:15 13° ESE 01:35:15 13° ESE 01:35:47 10° ESE visible
12 Mar ? 03:16:33 15° WSW 03:18:03 18° SW 03:20:56 10° S visible
12 Mar ? 17:54:55 10° SSW 17:57:01 18° S 17:57:01 18° S visible
13 Mar ? 02:54:35 17° SSW 02:54:35 17° SSW 02:57:08 10° S visible
13 Mar ? 17:30:51 10° SSW 17:35:19 24° SSE 17:35:19 24° SSE visible
14 Mar ? 02:32:42 12° S 02:32:42 12° S 02:33:21 10° S visible
14 Mar ? 17:06:48 10° SSW 17:12:00 26° SE 17:13:33 23° ESE visible
14 Mar ? 18:52:46 10° WSW 18:54:52 22° WSW 18:54:52 22° WSW visible
15 Mar ? 16:42:43 10° SSW 16:48:08 27° SE 16:51:45 15° E visible
15 Mar ? 18:28:45 10° WSW 18:33:02 44° WSW 18:33:02 44° WSW visible
16 Mar ? 16:18:40 10° SSW 16:24:14 27° SE 16:29:15 10° E visible
16 Mar ? 18:04:43 10° WSW 18:11:08 89° SW 18:11:08 89° SW visible
